METEOSAT-11 (MSG-4)

Last updated on Thu Nov 21 2024 00:02:19 GMT+0000 (Coordinated Universal Time)

1 40732U 15034A 24325.22564378 .00000065 00000+0 00000+0 0 9991 2 40732 1.7654 71.3835 0001309 183.7844 255.1008 1.00275909 1461
UTC large
Height (km)
Speed (km/s)
/
Latitude / Longitude
Inclination (degrees)
Orbital Period (minutes)
Azimuth
Elevation
Range (km)
Doppler Factor

Next 0 passes for location: London (51.5072 / 0.1276)

Sorry there are no passes over London.